Location: Newark
(7.2500°N, 36.5833°E)
Time: 22:01:07
(UTC+00:00)

N. Korean satellite - Visible Passes

Search period start: 17 November 2019 00:00
Search period end: 27 November 2019 00:00
Orbit: 456 x 506 km, 97.2° (Epoch: 17 November)

Date Brightness Start Highest point End Pass type
(mag) Time Alt. Az. Time Alt. Az. Time Alt. Az.
17 Nov 9.7 02:29:21 10° NE 02:31:56 19° E 02:34:30 10° SE visible
17 Nov 10.3 15:54:47 10° WSW 15:56:03 12° W 15:57:18 10° WNW visible
18 Nov 9.0 15:27:33 10° SSW 15:30:40 29° W 15:33:49 10° NW visible
20 Nov 8.5 02:45:49 10° NNE 02:49:07 35° E 02:52:25 10° SSE visible
21 Nov 10.0 02:21:52 10° ENE 02:23:46 14° E 02:25:39 10° SE visible
21 Nov 9.9 15:45:38 10° SW 15:47:51 16° W 15:50:05 10° WNW visible
24 Nov 9.1 02:37:55 10° NE 02:40:56 26° E 02:43:54 10° SSE visible
25 Nov 9.7 15:36:51 10° SSW 15:39:38 21° W 15:42:26 10° NW visible
